Time,TemperatureF,DewpointF,PressureIn,WindDirection,WindDirectionDegrees,WindSpeedMPH,WindSpeedGustMPH,Humidity,HourlyPrecipIn,Conditions,Clouds,dailyrainin,SolarRadiationWatts/m^2,SoftwareType,DateUTC
2013-04-13 00:05:00,68.7,-99.9,19.99,West,276,1.0,9.0,255,0.00,,,0.00,0,Wunderground v.1.15,2013-04-13 04:05:00,
2013-04-13 00:15:00,68.6,-99.9,19.98,NNW,332,3.0,9.0,255,0.00,,,0.00,0,Wunderground v.1.15,2013-04-13 04:15:00,
2013-04-13 00:25:00,68.6,-99.9,19.99,NW,325,0.0,9.0,255,0.00,,,0.00,0,Wunderground v.1.15,2013-04-13 04:25:00,
2013-04-13 00:35:00,68.7,-99.9,19.99,NNW,337,0.0,11.0,255,0.00,,,0.00,0,Wunderground v.1.15,2013-04-13 04:35:00,
2013-04-13 00:46:00,68.8,-99.9,19.99,NW,326,6.0,11.0,255,0.00,,,0.00,0,Wunderground v.1.15,2013-04-13 04:46:00,
2013-04-13 00:56:00,69.2,-99.9,19.99,NNW,334,4.0,11.0,255,0.00,,,0.00,0,Wunderground v.1.15,2013-04-13 04:56:00,
2013-04-13 01:06:00,69.5,-99.9,19.99,North,350,6.0,14.0,255,0.00,,,0.00,0,Wunderground v.1.15,2013-04-13 05:06:00,
2013-04-13 01:16:00,68.8,-99.9,19.99,NNW,330,0.0,14.0,255,0.00,,,0.00,0,Wunderground v.1.15,2013-04-13 05:16:00,
2013-04-13 01:26:00,68.0,-99.9,19.99,NNW,337,1.0,14.0,255,0.00,,,0.00,0,Wunderground v.1.15,2013-04-13 05:26:00,
2013-04-13 01:35:00,67.6,-99.9,19.99,NW,323,5.0,12.0,255,0.00,,,0.00,0,Wunderground v.1.15,2013-04-13 05:35:00,
2013-04-13 01:45:00,67.5,-99.9,19.99,NW,313,3.0,12.0,255,0.00,,,0.00,0,Wunderground v.1.15,2013-04-13 05:45:00,
2013-04-13 01:55:00,67.1,-99.9,19.98,NNW,348,5.0,12.0,255,0.00,,,0.00,0,Wunderground v.1.15,2013-04-13 05:55:00,
2013-04-13 02:05:00,66.8,-99.9,19.98,North,357,2.0,13.0,255,0.00,,,0.00,0,Wunderground v.1.15,2013-04-13 06:05:00,
2013-04-13 02:15:00,66.3,-99.9,19.98,NNW,345,6.0,13.0,255,0.00,,,0.00,0,Wunderground v.1.15,2013-04-13 06:15:00,
2013-04-13 02:25:00,65.9,-99.9,19.99,NNW,340,3.0,13.0,255,0.00,,,0.00,0,Wunderground v.1.15,2013-04-13 06:25:00,
2013-04-13 02:35:00,65.3,-99.9,19.98,NNW,337,6.0,11.0,255,0.00,,,0.00,0,Wunderground v.1.15,2013-04-13 06:35:00,
2013-04-13 02:45:00,64.8,-99.9,19.99,NNW,340,3.0,11.0,255,0.00,,,0.00,0,Wunderground v.1.15,2013-04-13 06:45:00,
2013-04-13 02:55:00,64.1,-99.9,19.99,NNW,332,8.0,11.0,255,0.00,,,0.00,0,Wunderground v.1.15,2013-04-13 06:55:00,
2013-04-13 03:05:00,63.6,-99.9,19.98,NNW,347,2.0,11.0,255,0.00,,,0.00,0,Wunderground v.1.15,2013-04-13 07:05:00,
2013-04-13 03:15:00,63.0,-99.9,19.99,NNW,347,3.0,11.0,255,0.00,,,0.00,0,Wunderground v.1.15,2013-04-13 07:15:00,
2013-04-13 03:25:00,62.5,-99.9,19.99,North,350,2.0,11.0,255,0.00,,,0.00,0,Wunderground v.1.15,2013-04-13 07:25:00,
2013-04-13 03:35:00,62.2,-99.9,19.99,NNW,341,7.0,7.0,255,0.00,,,0.00,0,Wunderground v.1.15,2013-04-13 07:35:00,
2013-04-13 03:56:00,62.3,-99.9,19.98,NNW,336,3.0,6.0,255,0.00,,,0.00,0,Wunderground v.1.15,2013-04-13 07:56:00,
2013-04-13 04:16:00,62.0,-99.9,19.98,North,355,2.0,10.0,255,0.00,,,0.00,0,Wunderground v.1.15,2013-04-13 08:16:00,
2013-04-13 04:26:00,61.8,-99.9,19.98,NNW,346,5.0,10.0,255,0.00,,,0.00,0,Wunderground v.1.15,2013-04-13 08:26:00,
2013-04-13 04:35:00,61.5,-99.9,19.98,North,4,5.0,10.0,255,0.00,,,0.00,0,Wunderground v.1.15,2013-04-13 08:35:00,
2013-04-13 04:45:00,61.3,-99.9,19.98,NNW,342,6.0,10.0,255,0.00,,,0.00,0,Wunderground v.1.15,2013-04-13 08:45:00,
2013-04-13 04:55:00,61.0,-99.9,19.98,North,357,7.0,10.0,255,0.00,,,0.00,0,Wunderground v.1.15,2013-04-13 08:55:00,
2013-04-13 05:05:00,60.7,-99.9,19.98,North,352,7.0,11.0,255,0.00,,,0.00,0,Wunderground v.1.15,2013-04-13 09:05:00,
2013-04-13 05:15:00,60.2,-99.9,19.99,North,0,3.0,11.0,255,0.00,,,0.00,0,Wunderground v.1.15,2013-04-13 09:15:00,
2013-04-13 05:25:00,60.2,-99.9,19.99,North,349,4.0,11.0,255,0.00,,,0.00,0,Wunderground v.1.15,2013-04-13 09:25:00,
2013-04-13 05:35:00,60.1,-99.9,19.98,NNW,343,6.0,12.0,255,0.00,,,0.00,0,Wunderground v.1.15,2013-04-13 09:35:00,
2013-04-13 05:45:00,60.0,-99.9,19.99,North,0,4.0,12.0,255,0.00,,,0.00,0,Wunderground v.1.15,2013-04-13 09:45:00,
2013-04-13 05:55:00,59.8,-99.9,19.99,North,356,7.0,12.0,255,0.00,,,0.00,0,Wunderground v.1.15,2013-04-13 09:55:00,
2013-04-13 06:05:00,59.6,-99.9,19.98,North,0,3.0,13.0,255,0.00,,,0.00,0,Wunderground v.1.15,2013-04-13 10:05:00,
2013-04-13 06:15:00,59.4,-99.9,19.98,North,353,3.0,13.0,255,0.00,,,0.00,0,Wunderground v.1.15,2013-04-13 10:15:00,
2013-04-13 06:25:00,59.0,-99.9,19.99,NNW,343,1.0,13.0,255,0.00,,,0.00,0,Wunderground v.1.15,2013-04-13 10:25:00,
2013-04-13 06:34:00,58.8,-99.9,19.99,NNW,342,6.0,11.0,255,0.00,,,0.00,0,Wunderground v.1.15,2013-04-13 10:34:00,
2013-04-13 06:46:00,58.4,-99.9,19.98,North,354,7.0,11.0,255,0.00,,,0.00,0,Wunderground v.1.15,2013-04-13 10:46:00,
2013-04-13 06:56:00,58.4,-99.9,19.99,North,359,2.0,11.0,255,0.00,,,0.00,0,Wunderground v.1.15,2013-04-13 10:56:00,
2013-04-13 07:06:00,58.1,-99.9,19.98,North,359,5.0,11.0,255,0.00,,,0.00,0,Wunderground v.1.15,2013-04-13 11:06:00,
2013-04-13 07:16:00,58.0,-99.9,19.99,North,0,3.0,11.0,255,0.00,,,0.00,0,Wunderground v.1.15,2013-04-13 11:16:00,
2013-04-13 07:25:00,57.9,-99.9,19.99,North,354,3.0,11.0,255,0.00,,,0.00,0,Wunderground v.1.15,2013-04-13 11:25:00,
2013-04-13 07:35:00,58.1,-99.9,19.99,North,357,6.0,11.0,255,0.00,,,0.00,0,Wunderground v.1.15,2013-04-13 11:35:00,
2013-04-13 07:45:00,58.4,-99.9,19.98,North,358,5.0,11.0,255,0.00,,,0.00,0,Wunderground v.1.15,2013-04-13 11:45:00,
2013-04-13 08:05:00,59.6,-99.9,19.99,North,0,7.0,10.0,255,0.00,,,0.00,0,Wunderground v.1.15,2013-04-13 12:05:00,
2013-04-13 08:15:00,60.2,-99.9,19.99,North,359,6.0,10.0,255,0.00,,,0.00,0,Wunderground v.1.15,2013-04-13 12:15:00,
2013-04-13 08:25:00,61.1,-99.9,19.98,NNW,348,4.0,10.0,255,0.00,,,0.00,0,Wunderground v.1.15,2013-04-13 12:25:00,
2013-04-13 08:35:00,61.9,-99.9,19.98,North,7,0.0,10.0,255,0.00,,,0.00,0,Wunderground v.1.15,2013-04-13 12:35:00,
2013-04-13 08:45:00,62.8,-99.9,19.98,North,353,0.0,10.0,255,0.00,,,0.00,0,Wunderground v.1.15,2013-04-13 12:45:00,
2013-04-13 08:55:00,63.5,-99.9,19.99,NNE,27,8.0,10.0,255,0.00,,,0.00,0,Wunderground v.1.15,2013-04-13 12:55:00,
2013-04-13 09:05:00,64.1,-99.9,19.99,NNE,31,5.0,13.0,255,0.00,,,0.00,0,Wunderground v.1.15,2013-04-13 13:05:00,
2013-04-13 09:15:00,65.1,-99.9,19.99,NNE,28,11.0,13.0,255,0.00,,,0.00,0,Wunderground v.1.15,2013-04-13 13:15:00,
2013-04-13 09:34:00,65.5,-99.9,19.98,ENE,65,3.0,14.0,255,0.00,,,0.00,0,Wunderground v.1.15,2013-04-13 13:34:00,
2013-04-13 09:56:00,66.8,-99.9,19.98,NNE,14,8.0,14.0,255,0.00,,,0.00,0,Wunderground v.1.15,2013-04-13 13:56:00,
2013-04-13 10:06:00,67.1,-99.9,19.99,NNE,16,4.0,12.0,255,0.00,,,0.00,0,Wunderground v.1.15,2013-04-13 14:06:00,
2013-04-13 10:16:00,67.3,-99.9,19.99,NE,45,9.0,12.0,255,0.00,,,0.00,0,Wunderground v.1.15,2013-04-13 14:16:00,
2013-04-13 10:26:00,68.3,-99.9,19.98,NNE,27,4.0,12.0,255,0.00,,,0.00,0,Wunderground v.1.15,2013-04-13 14:26:00,
2013-04-13 10:35:00,69.0,-99.9,19.99,NE,48,4.0,15.0,255,0.00,,,0.00,0,Wunderground v.1.15,2013-04-13 14:35:00,
2013-04-13 10:45:00,68.6,-99.9,19.98,East,95,7.0,15.0,255,0.00,,,0.00,0,Wunderground v.1.15,2013-04-13 14:45:00,
2013-04-13 10:55:00,68.6,-99.9,19.98,ENE,59,10.0,15.0,255,0.00,,,0.00,0,Wunderground v.1.15,2013-04-13 14:55:00,
2013-04-13 11:05:00,69.7,-99.9,19.99,ENE,68,6.0,12.0,255,0.00,,,0.00,0,Wunderground v.1.15,2013-04-13 15:05:00,
2013-04-13 11:15:00,70.8,-99.9,19.99,NE,43,9.0,12.0,255,0.00,,,0.00,0,Wunderground v.1.15,2013-04-13 15:15:00,
2013-04-13 11:25:00,70.2,-99.9,19.99,ENE,64,5.0,12.0,255,0.00,,,0.00,0,Wunderground v.1.15,2013-04-13 15:25:00,
2013-04-13 11:35:00,70.6,-99.9,19.98,East,93,3.0,11.0,255,0.00,,,0.00,0,Wunderground v.1.15,2013-04-13 15:35:00,
2013-04-13 11:45:00,71.6,-99.9,19.99,NE,39,5.0,11.0,255,0.00,,,0.00,0,Wunderground v.1.15,2013-04-13 15:45:00,
2013-04-13 11:55:00,71.4,-99.9,19.99,NE,40,2.0,11.0,255,0.00,,,0.00,0,Wunderground v.1.15,2013-04-13 15:55:00,
2013-04-13 12:05:00,72.4,-99.9,19.99,ESE,108,3.0,10.0,255,0.00,,,0.00,0,Wunderground v.1.15,2013-04-13 16:05:00,
2013-04-13 12:15:00,71.5,-99.9,19.98,East,93,6.0,10.0,255,0.00,,,0.00,0,Wunderground v.1.15,2013-04-13 16:15:00,
2013-04-13 12:25:00,70.2,-99.9,19.99,SE,139,2.0,10.0,255,0.00,,,0.00,0,Wunderground v.1.15,2013-04-13 16:25:00,
2013-04-13 12:35:00,70.4,-99.9,19.99,SSE,160,7.0,10.0,255,0.00,,,0.00,0,Wunderground v.1.15,2013-04-13 16:35:00,
2013-04-13 12:55:00,70.3,-99.9,19.99,ESE,121,2.0,10.0,255,0.00,,,0.00,0,Wunderground v.1.15,2013-04-13 16:55:00,
2013-04-13 13:06:00,71.6,-99.9,19.99,SE,142,6.0,14.0,255,0.00,,,0.00,0,Wunderground v.1.15,2013-04-13 17:06:00,
2013-04-13 13:16:00,72.0,-99.9,19.98,ESE,112,3.0,14.0,255,0.00,,,0.00,0,Wunderground v.1.15,2013-04-13 17:16:00,
2013-04-13 13:25:00,71.7,-99.9,19.99,South,175,3.0,14.0,255,0.00,,,0.00,0,Wunderground v.1.15,2013-04-13 17:25:00,
2013-04-13 13:35:00,73.6,-99.9,19.99,West,263,1.0,14.0,255,0.00,,,0.00,0,Wunderground v.1.15,2013-04-13 17:35:00,
2013-04-13 13:45:00,73.3,-99.9,19.99,WSW,257,4.0,14.0,255,0.00,,,0.00,0,Wunderground v.1.15,2013-04-13 17:45:00,
2013-04-13 14:05:00,71.0,-99.9,19.99,SE,132,11.0,11.0,255,0.00,,,0.00,0,Wunderground v.1.15,2013-04-13 18:05:00,
2013-04-13 14:15:00,69.6,-99.9,19.99,SE,135,6.0,11.0,255,0.00,,,0.00,0,Wunderground v.1.15,2013-04-13 18:15:00,
2013-04-13 14:25:00,70.5,-99.9,19.99,South,169,4.0,11.0,255,0.00,,,0.00,0,Wunderground v.1.15,2013-04-13 18:25:00,
2013-04-13 14:35:00,69.7,-99.9,19.99,SSE,153,11.0,19.0,255,0.00,,,0.00,0,Wunderground v.1.15,2013-04-13 18:35:00,
2013-04-13 14:45:00,69.4,-99.9,19.99,SSE,165,9.0,19.0,255,0.00,,,0.00,0,Wunderground v.1.15,2013-04-13 18:45:00,
2013-04-13 14:55:00,70.6,-99.9,19.98,SE,124,7.0,19.0,255,0.00,,,0.00,0,Wunderground v.1.15,2013-04-13 18:55:00,
2013-04-13 15:05:00,68.6,-99.9,19.98,SSE,158,9.0,17.0,255,0.00,,,0.00,0,Wunderground v.1.15,2013-04-13 19:05:00,
2013-04-13 15:15:00,69.7,-99.9,19.99,SSE,164,6.0,17.0,255,0.00,,,0.00,0,Wunderground v.1.15,2013-04-13 19:15:00,
2013-04-13 15:25:00,68.6,-99.9,19.99,South,177,14.0,17.0,255,0.00,,,0.00,0,Wunderground v.1.15,2013-04-13 19:25:00,
2013-04-13 15:34:00,68.9,-99.9,19.98,SSE,165,6.0,21.0,255,0.00,,,0.00,0,Wunderground v.1.15,2013-04-13 19:34:00,
2013-04-13 15:46:00,68.3,-99.9,19.98,ESE,118,6.0,21.0,255,0.00,,,0.00,0,Wunderground v.1.15,2013-04-13 19:46:00,
2013-04-13 15:56:00,69.0,-99.9,19.99,SE,139,12.0,21.0,255,0.00,,,0.00,0,Wunderground v.1.15,2013-04-13 19:56:00,
2013-04-13 16:05:00,69.4,-99.9,19.99,SSE,161,7.0,20.0,255,0.00,,,0.00,0,Wunderground v.1.15,2013-04-13 20:05:00,
2013-04-13 16:15:00,68.7,-99.9,19.99,SE,140,13.0,20.0,255,0.00,,,0.00,0,Wunderground v.1.15,2013-04-13 20:15:00,
2013-04-13 16:25:00,68.6,-99.9,19.99,SE,141,10.0,20.0,255,0.00,,,0.00,0,Wunderground v.1.15,2013-04-13 20:25:00,
2013-04-13 16:35:00,68.3,-99.9,19.99,SE,139,7.0,21.0,255,0.00,,,0.00,0,Wunderground v.1.15,2013-04-13 20:35:00,
2013-04-13 16:45:00,68.0,-99.9,19.99,South,169,10.0,21.0,255,0.00,,,0.00,0,Wunderground v.1.15,2013-04-13 20:45:00,
2013-04-13 16:55:00,68.5,-99.9,19.99,SSE,157,9.0,21.0,255,0.00,,,0.00,0,Wunderground v.1.15,2013-04-13 20:55:00,
2013-04-13 17:05:00,67.9,-99.9,19.99,South,183,6.0,17.0,255,0.00,,,0.00,0,Wunderground v.1.15,2013-04-13 21:05:00,
2013-04-13 17:15:00,68.1,-99.9,19.98,South,172,6.0,17.0,255,0.00,,,0.00,0,Wunderground v.1.15,2013-04-13 21:15:00,
2013-04-13 17:25:00,67.9,-99.9,19.99,SSE,152,6.0,17.0,255,0.00,,,0.00,0,Wunderground v.1.15,2013-04-13 21:25:00,
2013-04-13 17:35:00,67.0,-99.9,19.99,SE,138,6.0,17.0,255,0.00,,,0.00,0,Wunderground v.1.15,2013-04-13 21:35:00,
2013-04-13 17:45:00,67.9,-99.9,19.98,South,188,5.0,17.0,255,0.00,,,0.00,0,Wunderground v.1.15,2013-04-13 21:45:00,
2013-04-13 17:55:00,67.1,-99.9,19.98,SSE,150,6.0,17.0,255,0.00,,,0.00,0,Wunderground v.1.15,2013-04-13 21:55:00,
2013-04-13 18:05:00,66.5,-99.9,19.98,SE,136,7.0,14.0,255,0.00,,,0.00,0,Wunderground v.1.15,2013-04-13 22:05:00,
2013-04-13 18:15:00,67.6,-99.9,19.99,SE,139,7.0,14.0,255,0.00,,,0.00,0,Wunderground v.1.15,2013-04-13 22:15:00,
2013-04-13 18:25:00,68.0,-99.9,19.98,SSE,149,7.0,14.0,255,0.00,,,0.00,0,Wunderground v.1.15,2013-04-13 22:25:00,
2013-04-13 18:34:00,66.9,-99.9,19.98,SSE,162,4.0,12.0,255,0.00,,,0.00,0,Wunderground v.1.15,2013-04-13 22:34:00,
2013-04-13 18:46:00,67.0,-99.9,19.98,SSE,166,5.0,12.0,255,0.00,,,0.00,0,Wunderground v.1.15,2013-04-13 22:46:00,
2013-04-13 18:56:00,66.4,-99.9,19.98,SSE,167,6.0,12.0,255,0.00,,,0.00,0,Wunderground v.1.15,2013-04-13 22:56:00,
2013-04-13 19:05:00,66.3,-99.9,19.98,South,169,4.0,10.0,255,0.00,,,0.00,0,Wunderground v.1.15,2013-04-13 23:05:00,
2013-04-13 19:15:00,65.6,-99.9,19.99,SSE,161,5.0,10.0,255,0.00,,,0.00,0,Wunderground v.1.15,2013-04-13 23:15:00,
2013-04-13 19:25:00,65.1,-99.9,19.98,South,171,7.0,10.0,255,0.00,,,0.00,0,Wunderground v.1.15,2013-04-13 23:25:00,
2013-04-13 19:35:00,64.7,-99.9,19.99,South,170,5.0,10.0,255,0.00,,,0.00,0,Wunderground v.1.15,2013-04-13 23:35:00,
2013-04-13 19:45:00,64.1,-99.9,19.99,South,170,4.0,10.0,255,0.00,,,0.00,0,Wunderground v.1.15,2013-04-13 23:45:00,
2013-04-13 19:55:00,63.7,-99.9,19.99,South,170,3.0,10.0,255,0.00,,,0.00,0,Wunderground v.1.15,2013-04-13 23:55:00,
2013-04-13 20:05:00,63.3,-99.9,19.99,South,170,2.0,9.0,255,0.00,,,0.00,0,Wunderground v.1.15,2013-04-14 00:05:00,
2013-04-13 20:15:00,63.1,-99.9,19.98,South,170,3.0,9.0,255,0.00,,,0.00,0,Wunderground v.1.15,2013-04-14 00:15:00,
2013-04-13 20:25:00,62.9,-99.9,19.99,South,170,3.0,9.0,255,0.00,,,0.00,0,Wunderground v.1.15,2013-04-14 00:25:00,
2013-04-13 20:35:00,62.5,-99.9,19.99,South,170,3.0,4.0,255,0.00,,,0.00,0,Wunderground v.1.15,2013-04-14 00:35:00,
2013-04-13 20:45:00,62.3,-99.9,19.99,South,170,2.0,4.0,255,0.00,,,0.00,0,Wunderground v.1.15,2013-04-14 00:45:00,
2013-04-13 20:55:00,62.2,-99.9,19.98,South,170,0.0,4.0,255,0.00,,,0.00,0,Wunderground v.1.15,2013-04-14 00:55:00,
2013-04-13 21:05:00,62.0,-99.9,19.98,South,170,1.0,4.0,255,0.00,,,0.00,0,Wunderground v.1.15,2013-04-14 01:05:00,
2013-04-13 21:15:00,61.8,-99.9,19.99,South,170,1.0,4.0,255,0.00,,,0.00,0,Wunderground v.1.15,2013-04-14 01:15:00,
2013-04-13 21:25:00,61.6,-99.9,19.99,South,170,0.0,4.0,255,0.00,,,0.00,0,Wunderground v.1.15,2013-04-14 01:25:00,
2013-04-13 21:45:00,60.2,-99.9,19.99,South,170,0.0,3.0,255,0.00,,,0.00,0,Wunderground v.1.15,2013-04-14 01:45:00,
2013-04-13 21:55:00,60.0,-99.9,19.98,South,170,0.0,3.0,255,0.00,,,0.00,0,Wunderground v.1.15,2013-04-14 01:55:00,
2013-04-13 22:05:00,59.8,-99.9,19.99,South,170,0.0,0.0,255,0.00,,,0.00,0,Wunderground v.1.15,2013-04-14 02:05:00,
2013-04-13 22:15:00,60.0,-99.9,19.98,South,170,0.0,0.0,255,0.00,,,0.00,0,Wunderground v.1.15,2013-04-14 02:15:00,
2013-04-13 22:25:00,60.1,-99.9,19.98,South,170,0.0,0.0,255,0.00,,,0.00,0,Wunderground v.1.15,2013-04-14 02:25:00,
2013-04-13 22:35:00,60.7,-99.9,19.98,South,170,1.0,2.0,255,0.00,,,0.00,0,Wunderground v.1.15,2013-04-14 02:35:00,
2013-04-13 22:45:00,59.9,-99.9,19.98,South,170,0.0,2.0,255,0.00,,,0.00,0,Wunderground v.1.15,2013-04-14 02:45:00,
2013-04-13 22:55:00,59.5,-99.9,19.98,South,170,0.0,2.0,255,0.00,,,0.00,0,Wunderground v.1.15,2013-04-14 02:55:00,
2013-04-13 23:05:00,58.9,-99.9,19.98,South,170,0.0,3.0,255,0.00,,,0.00,0,Wunderground v.1.15,2013-04-14 03:05:00,
2013-04-13 23:15:00,58.8,-99.9,19.98,South,170,0.0,3.0,255,0.00,,,0.00,0,Wunderground v.1.15,2013-04-14 03:15:00,
2013-04-13 23:25:00,58.4,-99.9,19.98,South,170,0.0,3.0,255,0.00,,,0.00,0,Wunderground v.1.15,2013-04-14 03:25:00,
2013-04-13 23:35:00,58.3,-99.9,19.98,South,170,0.0,0.0,255,0.00,,,0.00,0,Wunderground v.1.15,2013-04-14 03:35:00,
2013-04-13 23:45:00,57.8,-99.9,19.99,South,170,0.0,0.0,255,0.00,,,0.00,0,Wunderground v.1.15,2013-04-14 03:45:00,
2013-04-13 23:55:00,57.6,-99.9,19.99,South,170,0.0,0.0,255,0.00,,,0.00,0,Wunderground v.1.15,2013-04-14 03:55:00,